Weather History for Montpelier, VT

Change the Weather History Date:

Wednesday, November 28, 2012

  Actual Average Record
Temperature  
Mean Temperature 30 °F 30 °F  
Max Temperature 34 °F 38 °F 70 °F (1990)
Min Temperature 25 °F 22 °F -3 °F (1951)
Degree Days  
Heating Degree Days 35 35  
Month to date heating degree days 886 819  
Since 1 July heating degree days 1697 1775  
Cooling Degree Days 0 0  
Month to date cooling degree days 0  
Year to date cooling degree days 264  
Moisture  
Dew Point 23 °F    
Average Humidity 76    
Maximum Humidity 100    
Minimum Humidity 51    
Precipitation  
Precipitation T in 0.10 in 1.83 in (1959)
Month to date precipitation 0.88 2.97  
Year to date precipitation 30.33 34.33  
Sea Level Pressure  
Sea Level Pressure 30.20 in    
Wind  
Wind Speed 3 mph (SW)    
Max Wind Speed 12 mph    
Max Gust Speed 18 mph    
Visibility 9 miles    
Events Snow    
T = Trace of Precipitation, MM = Missing Value Source: NWS Daily Summary

Daily Weather History Graph

Daily Weather History Graph

Search for Another Location

Airport:

Trip Planner

Search our weather history database for the weather conditions in past years. The results will help you decide how hot, cold, wet, or windy it might be!

Date:

Astronomy

Nov. 28, 2012 Rise Set
Actual Time 7:02 AM EST 4:13 PM EST
Civil Twilight 6:30 AM EST 4:46 PM EST
Nautical Twilight 5:54 AM EST 5:22 PM EST
Astronomical Twilight 5:19 AM EST 5:56 PM EST
Moon 4:26 PM EST (11/28) 6:57 AM EST (11/28)
Length of Visible Light 10h 15m
Length of Day
9h 11m
Full, 100% of the Moon is Illuminated
Nov 28
Full
Dec 6
Last Quarter
Dec 13
New
Dec 20
First Quarter
Dec 28
Full

Hourly Weather History & Observations

Time (EST) Temp. Windchill Dew Point Humidity Pressure Visibility Wind Dir Wind Speed Gust Speed Precip Events Conditions
12:51 AM 27.0 °F - 24.1 °F 89% 30.28 in 10.0 mi Calm Calm - N/A   Overcast
1:51 AM 26.1 °F - 24.1 °F 92% 30.27 in 10.0 mi Calm Calm - N/A   Overcast
2:51 AM 26.1 °F - 24.1 °F 92% 30.27 in 9.0 mi Calm Calm - N/A   Overcast
3:51 AM 26.1 °F - 24.1 °F 92% 30.26 in 10.0 mi Calm Calm - N/A   Overcast
4:51 AM 26.1 °F - 24.1 °F 92% 30.28 in 9.0 mi Calm Calm - N/A   Overcast
5:51 AM 26.1 °F - 24.1 °F 92% 30.27 in 10.0 mi Calm Calm - N/A   Overcast
6:51 AM 25.0 °F - 24.1 °F 96% 30.26 in 9.0 mi Calm Calm - N/A   Overcast
7:51 AM 25.0 °F - 24.1 °F 96% 30.26 in 8.0 mi Calm Calm - N/A   Overcast
8:22 AM 26.6 °F - 24.8 °F 93% 30.20 in 1.5 mi Calm Calm - N/A   Mostly Cloudy
8:30 AM 26.6 °F - 23.0 °F 86% 30.20 in 9.0 mi Calm Calm - N/A   Mostly Cloudy
8:51 AM 27.0 °F - 24.1 °F 89% 30.25 in 9.0 mi Calm Calm - N/A   Overcast
9:51 AM 30.9 °F - 24.1 °F 76% 30.24 in 10.0 mi Calm Calm - N/A   Mostly Cloudy
10:51 AM 32.0 °F 28.7 °F 25.0 °F 75% 30.21 in 10.0 mi NNE 3.5 mph - N/A   Overcast
11:51 AM 32.0 °F - 23.0 °F 69% 30.18 in 10.0 mi Calm Calm - N/A   Mostly Cloudy
12:51 PM 33.1 °F 30.0 °F 18.0 °F 54% 30.17 in 10.0 mi Variable 3.5 mph - N/A   Overcast
1:51 PM 33.1 °F 27.7 °F 18.0 °F 54% 30.14 in 10.0 mi West 5.8 mph - N/A   Overcast
2:51 PM 33.1 °F 27.7 °F 18.0 °F 54% 30.13 in 10.0 mi WSW 5.8 mph - N/A   Overcast
3:51 PM 32.0 °F 25.6 °F 21.9 °F 66% 30.14 in 9.0 mi South 6.9 mph - N/A   Overcast
4:51 PM 30.9 °F 26.2 °F 24.1 °F 76% 30.15 in 10.0 mi SSW 4.6 mph - N/A   Overcast
5:51 PM 30.0 °F 25.2 °F 23.0 °F 75% 30.16 in 10.0 mi SW 4.6 mph - N/A   Overcast
6:51 PM 30.0 °F 22.4 °F 24.1 °F 79% 30.16 in 10.0 mi SSW 8.1 mph - N/A   Overcast
7:51 PM 28.9 °F 21.9 °F 23.0 °F 78% 30.16 in 10.0 mi SSW 6.9 mph - 0.00 in   Overcast
8:51 PM 30.9 °F 24.3 °F 21.9 °F 69% 30.15 in 8.0 mi WSW 6.9 mph - 0.00 in Snow Light Snow
9:51 PM 30.9 °F 24.3 °F 21.0 °F 67% 30.13 in 10.0 mi Variable 6.9 mph - N/A   Overcast
10:51 PM 30.0 °F 23.2 °F 23.0 °F 75% 30.14 in 6.0 mi SW 6.9 mph - 0.00 in Snow Light Snow
11:51 PM 28.9 °F 25.2 °F 24.1 °F 82% 30.14 in 10.0 mi Variable 3.5 mph - 0.00 in   Overcast